Location: The Saddle
(36.8333°N, 80.3417°W)
Time: 10:33:23
(UTC-05:00)

S-56A Canister/Altair - Pass Details

Date: 18 December 2023
Orbit: 640 x 2488 km, 38.9° (Epoch: 25 February)

Event Time Altitude Azimuth Distance (km) Brightness Sun altitude
Rises 05:02:50 0° 206° (SSW) 5,756 11.8 -28.3°
Reaches altitude 10° 05:07:45 10° 195° (SSW) 4,487 11.4 -27.3°
Maximum altitude 05:16:43 26° 146° (SE) 2,798 10.7 -25.6°
Drops below altitude 10° 05:23:28 10° 93° (E) 3,311 11.8 -24.2°
Sets 05:26:26 0° 81° (E) 4,022 12.4 -23.7°
